When you browse on this site, cookies collect data to enhance your experience and personalize the content and advertising you see.
Visit our Privacy Policy to learn more. By continuing to use the site, you agree to this use of cookies and data.
  • In Slovakia
  • List of Countries
  • For 7 days
  • Water Temperature
  • Satellite Maps
  • Weather Map
  • Weather Widgets
  • user-avatar
    Login

    Hourly Weather Shadni

    Today, 21 April, Sunday

    Time Temperature Precipitation Wind Pressure Humidity
    00:00 -3°C° 0 mm 1 mps 650 mmHg 84%
    01:00 -3°C° 0 mm 1 mps 650 mmHg 83%
    02:00 -4°C° 0 mm 1 mps 650 mmHg 82%
    03:00 -4°C° 0 mm 1 mps 650 mmHg 81%
    04:00 -3°C° 0 mm 1 mps 650 mmHg 80%
    05:00 -2°C° 0 mm 1 mps 650 mmHg 80%
    06:00 -2°C° 0 mm 1 mps 651 mmHg 79%
    07:00 -1°C° 0 mm 1 mps 651 mmHg 79%
    08:00 +1°C° 0 mm 1 mps 651 mmHg 78%
    09:00 +1°C° 0 mm 2 mps 652 mmHg 78%
    10:00 +1°C° 0 mm 2 mps 652 mmHg 78%
    11:00 +2°C° 0 mm 2 mps 652 mmHg 78%
    12:00 +2°C° 0 mm 2 mps 652 mmHg 78%
    13:00 +1°C° 0 mm 3 mps 652 mmHg 79%
    14:00 +1°C° 0 mm 3 mps 652 mmHg 80%
    15:00 +1°C° 0 mm 3 mps 652 mmHg 81%
    16:00 0°C° 0.1 mm 3 mps 652 mmHg 84%
    17:00 +1°C° 0.1 mm 2 mps 652 mmHg 88%
    18:00 -1°C° 0.1 mm 2 mps 652 mmHg 91%
    19:00 -1°C° 0.1 mm 2 mps 652 mmHg 92%
    20:00 -1°C° 0.1 mm 2 mps 652 mmHg 93%
    21:00 -1°C° 0.1 mm 2 mps 652 mmHg 94%
    22:00 0°C° 0 mm 1 mps 652 mmHg 93%
    23:00 0°C° 0 mm 1 mps 652 mmHg 92%

    Tomorrow, 22 April, Monday

    Time Temperature Precipitation Wind Pressure Humidity
    00:00 -1°C° 0 mm 1 mps 651 mmHg 92%
    01:00 -1°C° 0 mm 1 mps 651 mmHg 90%
    02:00 -2°C° 0 mm 1 mps 651 mmHg 89%
    03:00 -2°C° 0 mm 1 mps 650 mmHg 88%
    04:00 -2°C° 0 mm 1 mps 651 mmHg 86%
    05:00 -1°C° 0 mm 1 mps 651 mmHg 84%
    06:00 -1°C° 0 mm 1 mps 651 mmHg 83%
    07:00 0°C° 0 mm 1 mps 652 mmHg 81%
    08:00 +1°C° 0 mm 2 mps 652 mmHg 78%
    09:00 +2°C° 0 mm 2 mps 652 mmHg 76%
    10:00 +2°C° 0.1 mm 2 mps 652 mmHg 76%
    11:00 +1°C° 0.1 mm 3 mps 652 mmHg 76%
    12:00 +2°C° 0.1 mm 3 mps 653 mmHg 76%
    13:00 +2°C° 0.1 mm 3 mps 652 mmHg 75%
    14:00 +1°C° 0.1 mm 3 mps 652 mmHg 75%
    15:00 +1°C° 0.1 mm 3 mps 652 mmHg 74%
    16:00 +2°C° 0 mm 2 mps 652 mmHg 76%
    17:00 +1°C° 0 mm 2 mps 652 mmHg 78%
    18:00 +1°C° 0 mm 1 mps 652 mmHg 80%
    19:00 +1°C° 0 mm 1 mps 652 mmHg 81%
    20:00 0°C° 0 mm 1 mps 652 mmHg 82%
    21:00 -1°C° 0 mm 1 mps 652 mmHg 84%
    22:00 -1°C° 0 mm 1 mps 652 mmHg 82%
    23:00 -1°C° 0 mm 1 mps 652 mmHg 81%

    Day after tomorrow, 23 April, Tuesday

    Time Temperature Precipitation Wind Pressure Humidity
    00:00 -1°C° 0 mm 1 mps 653 mmHg 80%
    01:00 -1°C° 0 mm 1 mps 653 mmHg 77%
    02:00 -1°C° 0 mm 1 mps 653 mmHg 75%
    03:00 -1°C° 0 mm 1 mps 653 mmHg 72%
    04:00 -1°C° 0 mm 1 mps 653 mmHg 69%
    05:00 0°C° 0 mm 1 mps 653 mmHg 67%
    06:00 0°C° 0 mm 1 mps 654 mmHg 64%
    07:00 +1°C° 0 mm 1 mps 654 mmHg 61%
    08:00 +3°C° 0 mm 1 mps 655 mmHg 57%
    09:00 +3°C° 0 mm 2 mps 656 mmHg 54%
    10:00 +4°C° 0 mm 2 mps 656 mmHg 55%
    11:00 +4°C° 0 mm 2 mps 656 mmHg 56%
    12:00 +4°C° 0 mm 3 mps 656 mmHg 57%
    13:00 +5°C° 0 mm 2 mps 656 mmHg 59%
    14:00 +4°C° 0 mm 2 mps 656 mmHg 61%
    15:00 +4°C° 0 mm 2 mps 656 mmHg 63%
    16:00 +3°C° 0 mm 2 mps 656 mmHg 66%
    17:00 +4°C° 0 mm 1 mps 655 mmHg 69%
    18:00 +3°C° 0 mm 1 mps 655 mmHg 72%
    19:00 +2°C° 0 mm 1 mps 655 mmHg 74%
    20:00 +1°C° 0 mm 1 mps 656 mmHg 76%
    21:00 +1°C° 0 mm 1 mps 656 mmHg 78%
    22:00 +1°C° 0 mm 1 mps 656 mmHg 78%
    23:00 -2°C° 0 mm 2 mps 656 mmHg 78%

    24 April, Wednesday

    Time Temperature Precipitation Wind Pressure Humidity
    00:00 -2°C° 0 mm 2 mps 655 mmHg 78%
    01:00 -2°C° 0 mm 2 mps 655 mmHg 77%
    02:00 -2°C° 0 mm 2 mps 655 mmHg 75%
    03:00 -2°C° 0 mm 2 mps 655 mmHg 74%
    04:00 -1°C° 0 mm 2 mps 656 mmHg 71%
    05:00 -1°C° 0 mm 2 mps 656 mmHg 68%
    06:00 -1°C° 0 mm 2 mps 656 mmHg 66%
    07:00 +2°C° 0 mm 2 mps 657 mmHg 61%
    08:00 +4°C° 0 mm 2 mps 657 mmHg 56%
    09:00 +5°C° 0 mm 2 mps 658 mmHg 52%
    10:00 +6°C° 0 mm 2 mps 657 mmHg 52%
    11:00 +6°C° 0 mm 2 mps 657 mmHg 53%
    12:00 +7°C° 0 mm 3 mps 657 mmHg 54%
    13:00 +6°C° 0.1 mm 2 mps 657 mmHg 56%
    14:00 +6°C° 0.1 mm 2 mps 656 mmHg 58%
    15:00 +6°C° 0.1 mm 2 mps 656 mmHg 60%
    16:00 +5°C° 0.1 mm 2 mps 655 mmHg 64%
    17:00 +5°C° 0.1 mm 1 mps 655 mmHg 68%
    18:00 +5°C° 0.1 mm 1 mps 655 mmHg 73%
    19:00 +4°C° 0 mm 1 mps 655 mmHg 74%
    20:00 +4°C° 0 mm 1 mps 655 mmHg 75%
    21:00 +2°C° 0 mm 2 mps 655 mmHg 76%
    22:00 +2°C° 0 mm 2 mps 655 mmHg 73%
    23:00 +3°C° 0 mm 1 mps 655 mmHg 71%

    25 April, Thursday

    Time Temperature Precipitation Wind Pressure Humidity
    00:00 +3°C° 0 mm 1 mps 655 mmHg 68%
    01:00 +3°C° 0 mm 1 mps 654 mmHg 67%
    02:00 +3°C° 0 mm 1 mps 654 mmHg 65%
    03:00 +3°C° 0 mm 1 mps 654 mmHg 63%
    04:00 +3°C° 0.4 mm 1 mps 654 mmHg 66%
    05:00 +3°C° 0.4 mm 1 mps 654 mmHg 69%
    06:00 +3°C° 0.4 mm 1 mps 654 mmHg 71%
    07:00 +4°C° 0.6 mm 1 mps 655 mmHg 74%
    08:00 +4°C° 0.6 mm 1 mps 655 mmHg 76%
    09:00 +4°C° 0.6 mm 1 mps 655 mmHg 78%
    10:00 +4°C° 0.3 mm 2 mps 655 mmHg 77%
    11:00 +5°C° 0.3 mm 2 mps 656 mmHg 75%
    12:00 +5°C° 0.3 mm 2 mps 656 mmHg 74%
    13:00 +4°C° 0.3 mm 3 mps 656 mmHg 73%
    14:00 +5°C° 0.3 mm 3 mps 656 mmHg 73%
    15:00 +5°C° 0.3 mm 3 mps 656 mmHg 72%
    16:00 +5°C° 0.6 mm 2 mps 656 mmHg 77%
    17:00 +5°C° 0.6 mm 1 mps 656 mmHg 82%
    18:00 +4°C° 0.6 mm 0 mps 656 mmHg 86%
    19:00 +3°C° 0.3 mm 0 mps 656 mmHg 86%
    20:00 +3°C° 0.3 mm 0 mps 656 mmHg 86%
    21:00 +3°C° 0.3 mm 0 mps 657 mmHg 86%
    22:00 +4°C° 0.1 mm 1 mps 656 mmHg 85%
    23:00 +3°C° 0.1 mm 1 mps 656 mmHg 83%

    26 April, Friday

    Time Temperature Precipitation Wind Pressure Humidity
    00:00 +3°C° 0.1 mm 1 mps 656 mmHg 81%
    01:00 +3°C° 0 mm 1 mps 656 mmHg 79%
    02:00 +1°C° 0 mm 2 mps 656 mmHg 77%
    03:00 +1°C° 0 mm 2 mps 655 mmHg 75%
    04:00 +1°C° 0 mm 2 mps 656 mmHg 73%
    05:00 +2°C° 0 mm 2 mps 656 mmHg 70%
    06:00 +2°C° 0 mm 2 mps 656 mmHg 68%
    07:00 +3°C° 0 mm 2 mps 656 mmHg 67%
    08:00 +6°C° 0 mm 1 mps 657 mmHg 65%
    09:00 +8°C° 0 mm 1 mps 658 mmHg 64%
    10:00 +7°C° 0 mm 2 mps 657 mmHg 64%
    11:00 +8°C° 0 mm 2 mps 657 mmHg 63%
    12:00 +8°C° 0 mm 2 mps 657 mmHg 63%
    13:00 +8°C° 0 mm 2 mps 657 mmHg 64%
    14:00 +8°C° 0 mm 2 mps 657 mmHg 64%
    15:00 +8°C° 0 mm 2 mps 656 mmHg 65%
    16:00 +7°C° 0 mm 2 mps 656 mmHg 68%
    17:00 +7°C° 0 mm 2 mps 656 mmHg 71%
    18:00 +6°C° 0 mm 2 mps 655 mmHg 73%
    19:00 +5°C° 0 mm 2 mps 655 mmHg 74%
    20:00 +4°C° 0 mm 2 mps 655 mmHg 75%
    21:00 +3°C° 0 mm 2 mps 655 mmHg 76%
    22:00 +3°C° 0 mm 2 mps 655 mmHg 74%
    23:00 +3°C° 0 mm 2 mps 655 mmHg 72%
    Show more